Weather History for Custer, SD

Change the Weather History Date:

Wednesday, May 7, 2014

  Actual Average Record
Temperature  
Mean Temperature 40 °F 46 °F  
Max Temperature 48 °F 58 °F 82 °F (1966)
Min Temperature 32 °F 33 °F 19 °F (1951)
Degree Days  
Heating Degree Days 25 19  
Month to date heating degree days 132 141  
Since 1 July heating degree days 7813 7791  
Cooling Degree Days 0 0  
Month to date cooling degree days 0 0  
Year to date cooling degree days 0 0  
Moisture  
Dew Point 40 °F    
Average Humidity 90    
Maximum Humidity 100    
Minimum Humidity 80    
Precipitation  
Precipitation 0.63 in 0.09 in 1.12 in (1981)
Month to date precipitation 0.65 0.67  
Year to date precipitation 5.25 4.66  
Sea Level Pressure  
Sea Level Pressure 29.76 in    
Wind  
Wind Speed 5 mph (NNE)    
Max Wind Speed 14 mph    
Max Gust Speed 21 mph    
Visibility 5 miles    
Events Fog , Rain , Snow , Thunderstorm    
T = Trace of Precipitation, MM = Missing Value Source: NWS Daily Summary

Daily Weather History Graph

Daily Weather History Graph

Search for Another Location

Airport:

Trip Planner

Search our weather history database for the weather conditions in past years. The results will help you decide how hot, cold, wet, or windy it might be!

Date:

Astronomy

May. 07, 2014 Rise Set
Actual Time 5:38 AM MDT 8:04 PM MDT
Civil Twilight 5:06 AM MDT 8:36 PM MDT
Nautical Twilight 4:26 AM MDT 9:16 PM MDT
Astronomical Twilight 3:41 AM MDT 10:02 PM MDT
Moon 12:58 PM MDT (5/7) 1:52 AM MDT (5/7)
Length of Visible Light 15h 30m
Length of Day
14h 25m
First Quarter, 56% of the Moon is Illuminated
May 7
First Quarter
May 14
Full
May 21
Last Quarter
May 28
New
Jun 5
First Quarter

Hourly Weather History & Observations

Time (MDT) Temp. Windchill Dew Point Humidity Pressure Visibility Wind Dir Wind Speed Gust Speed Precip Events Conditions
12:00 AM 46.0 °F 41.9 °F 41.0 °F 83% 29.73 in 10.0 mi NE 8.1 mph - N/A Thunderstorm Overcast
12:53 AM 46.0 °F 41.9 °F 42.1 °F 86% 29.61 in 7.0 mi ENE 8.1 mph - 0.01 in Rain , Thunderstorm Rain
1:21 AM 46.0 °F 41.9 °F 42.1 °F 86% 29.69 in 7.0 mi North 8.1 mph - 0.06 in Rain Light Rain
1:53 AM 45.0 °F 41.8 °F 43.0 °F 93% 29.59 in 7.0 mi North 5.8 mph - 0.06 in   Overcast
2:03 AM 45.0 °F 41.2 °F 43.0 °F 93% 29.73 in 5.0 mi West 6.9 mph - N/A Thunderstorm Overcast
2:13 AM 45.0 °F 39.7 °F 43.0 °F 93% 29.75 in 5.0 mi WNW 10.4 mph - 0.00 in Rain , Thunderstorm Thunderstorms and Rain
2:16 AM 45.0 °F 40.6 °F 43.0 °F 93% 29.75 in 2.5 mi WNW 8.1 mph - 0.03 in Rain , Thunderstorm Heavy Thunderstorms and Rain
2:20 AM 44.1 °F 41.5 °F 42.1 °F 93% 29.76 in 1.8 mi West 4.6 mph - 0.09 in Rain , Thunderstorm Heavy Thunderstorms and Rain
2:41 AM 44.1 °F 41.5 °F 43.0 °F 96% 29.75 in 2.5 mi WNW 4.6 mph - 0.22 in Rain , Thunderstorm Light Thunderstorms and Rain
2:47 AM 44.6 °F 41.4 °F 42.8 °F 93% 29.75 in 6.0 mi NW 5.8 mph - 0.22 in Rain , Thunderstorm Light Rain
2:48 AM 44.1 °F 40.8 °F 42.1 °F 93% 29.63 in 7.0 mi NNW 5.8 mph - 0.22 in Rain , Thunderstorm Light Rain
2:59 AM 44.1 °F 39.5 °F 42.1 °F 93% 29.74 in 10.0 mi NNW 8.1 mph - 0.00 in Rain Light Rain
3:53 AM 43.0 °F 40.3 °F 41.0 °F 93% 29.62 in 9.0 mi NNW 4.6 mph - 0.09 in Rain Light Rain
4:53 AM 42.1 °F 40.2 °F 41.0 °F 96% 29.65 in 10.0 mi NNW 3.5 mph - 0.00 in   Mostly Cloudy
5:53 AM 43.0 °F 41.3 °F 41.0 °F 93% 29.64 in 10.0 mi NNE 3.5 mph - 0.01 in   Scattered Clouds
6:17 AM 42.1 °F - 39.9 °F 92% 29.74 in 6.0 mi Calm Calm - N/A   Scattered Clouds
6:53 AM 44.1 °F 42.5 °F 42.1 °F 93% 29.69 in 10.0 mi West 3.5 mph - N/A   Scattered Clouds
7:00 AM 44.1 °F - 42.1 °F 93% 29.76 in 10.0 mi Calm Calm - N/A   Mostly Cloudy
7:53 AM 46.0 °F 43.1 °F 42.1 °F 86% 29.68 in 10.0 mi ENE 5.8 mph - N/A   Mostly Cloudy
8:04 AM 46.0 °F 44.8 °F 41.0 °F 83% 29.76 in 10.0 mi ENE 3.5 mph - N/A   Scattered Clouds
8:35 AM 46.9 °F - 42.1 °F 83% 29.77 in 10.0 mi ESE 3.5 mph - N/A   Mostly Cloudy
8:42 AM 48.2 °F - 42.8 °F 82% 29.77 in 10.0 mi SE 3.5 mph - N/A   Mostly Cloudy
8:53 AM 46.9 °F - 42.1 °F 83% 29.69 in 10.0 mi Variable 3.5 mph - N/A   Overcast
9:53 AM 48.0 °F - 43.0 °F 83% 29.69 in 10.0 mi Variable 3.5 mph - N/A   Overcast
10:28 AM 48.0 °F - 43.0 °F 83% 29.77 in 10.0 mi SSW 5.8 mph - N/A   Overcast
10:53 AM 48.0 °F - 42.1 °F 80% 29.70 in 10.0 mi South 4.6 mph - N/A   Overcast
11:37 AM 46.9 °F - 43.0 °F 86% 29.79 in 10.0 mi South 8.1 mph - N/A   Overcast
11:44 AM 46.9 °F - 43.0 °F 86% 29.79 in 10.0 mi SSW 5.8 mph - N/A   Overcast
11:53 AM 46.0 °F 43.9 °F 43.0 °F 89% 29.72 in 10.0 mi South 4.6 mph - N/A   Overcast
12:29 PM 45.0 °F 42.6 °F 44.1 °F 97% 29.78 in 5.0 mi Variable 4.6 mph - 0.01 in Rain Light Rain
12:45 PM 45.0 °F 43.5 °F 44.1 °F 97% 29.78 in 2.5 mi Variable 3.5 mph - 0.01 in Rain Light Rain
12:53 PM 45.0 °F 42.6 °F 44.1 °F 97% 29.72 in 4.0 mi South 4.6 mph - 0.01 in Rain Light Rain
1:05 PM 45.0 °F 43.5 °F 44.1 °F 97% 29.79 in 2.5 mi Variable 3.5 mph - 0.01 in Rain Light Rain
1:12 PM 45.0 °F 42.6 °F 44.1 °F 97% 29.79 in 6.0 mi Variable 4.6 mph - 0.01 in Rain Light Rain
1:26 PM 44.1 °F 42.5 °F 43.0 °F 96% 29.79 in 2.5 mi ESE 3.5 mph - 0.01 in Rain Light Rain
1:34 PM 44.1 °F 41.5 °F 43.0 °F 96% 29.79 in 7.0 mi East 4.6 mph - 0.01 in Rain Light Rain
1:53 PM 44.1 °F 42.5 °F 42.1 °F 93% 29.73 in 5.0 mi ESE 3.5 mph - 0.01 in Rain Light Rain
1:57 PM 44.1 °F 41.5 °F 43.0 °F 96% 29.79 in 0.8 mi South 4.6 mph - 0.00 in Rain Light Rain
2:25 PM 44.1 °F 41.5 °F 43.0 °F 96% 29.79 in 0.2 mi Variable 4.6 mph - 0.01 in Fog Fog
2:53 PM 44.1 °F 40.8 °F 43.0 °F 96% 29.75 in 0.2 mi Variable 5.8 mph - 0.01 in Fog Fog
3:10 PM 43.0 °F 40.3 °F 42.1 °F 97% 29.79 in 0.2 mi SSW 4.6 mph - N/A Fog Fog
3:53 PM 43.0 °F 41.3 °F 42.1 °F 97% 29.75 in 0.2 mi SW 3.5 mph - N/A Fog Fog
4:12 PM 43.0 °F 41.3 °F 42.1 °F 97% 29.79 in 0.2 mi SSW 3.5 mph - N/A Fog Fog
4:53 PM 44.1 °F - 43.0 °F 96% 29.73 in 0.2 mi Calm Calm - 0.00 in Fog Fog
5:08 PM 43.0 °F 37.2 °F 41.0 °F 93% 29.79 in 0.5 mi ESE 10.4 mph - N/A Fog Fog
5:25 PM 41.0 °F 36.4 °F 39.9 °F 96% 29.77 in 1.2 mi ENE 6.9 mph - 0.00 in Rain Light Rain
5:50 PM 39.2 °F 35.0 °F 39.2 °F 100% 29.78 in 3.0 mi East 5.8 mph - 0.01 in   Overcast
5:53 PM 39.9 °F 36.7 °F 39.0 °F 97% 29.75 in 3.0 mi East 4.6 mph - 0.01 in   Overcast
6:03 PM 39.9 °F 35.8 °F 39.0 °F 97% 29.79 in 7.0 mi East 5.8 mph - N/A   Overcast
6:53 PM 41.0 °F 39.0 °F 39.0 °F 93% 29.76 in 2.0 mi West 3.5 mph - 0.00 in Rain Light Rain
7:08 PM 39.0 °F 35.7 °F 37.0 °F 93% 29.81 in 4.0 mi WNW 4.6 mph - 0.00 in Rain Light Rain
7:53 PM 37.9 °F 34.4 °F 37.0 °F 97% 29.80 in 5.0 mi NNW 4.6 mph - 0.02 in Rain Light Rain
8:53 PM 37.9 °F 34.4 °F 36.0 °F 93% 29.81 in 7.0 mi NE 4.6 mph - 0.05 in Rain Light Rain
9:01 PM 37.0 °F 33.3 °F 36.0 °F 96% 29.85 in 7.0 mi NE 4.6 mph - 0.01 in Rain Light Rain
9:43 PM 34.0 °F 28.8 °F 33.1 °F 96% 29.87 in 5.0 mi East 5.8 mph - 0.07 in Snow Light Snow
9:53 PM 34.0 °F 31.0 °F 32.0 °F 92% 29.85 in 2.5 mi ENE 3.5 mph - 0.08 in Snow Light Snow
10:03 PM 33.1 °F 30.0 °F 32.0 °F 96% 29.87 in 1.8 mi NNE 3.5 mph - 0.01 in Snow Light Snow
10:49 PM 33.8 °F 29.6 °F 30.2 °F 87% 29.84 in 1.5 mi North 4.6 mph - 0.05 in Snow Light Snow
10:53 PM 33.1 °F 27.7 °F 32.0 °F 96% 29.82 in 1.5 mi North 5.8 mph - 0.05 in Snow Light Snow
11:00 PM 33.1 °F 27.7 °F 32.0 °F 96% 29.84 in 1.8 mi North 5.8 mph - 0.00 in Snow Light Snow
11:07 PM 33.1 °F 27.7 °F 30.9 °F 92% 29.83 in 1.8 mi North 5.8 mph - 0.01 in Snow Light Snow
11:27 PM 32.0 °F 23.6 °F 30.9 °F 96% 29.80 in 2.0 mi North 10.4 mph - 0.02 in Snow Light Snow
11:31 PM 32.0 °F 23.6 °F 30.0 °F 92% 29.80 in 3.0 mi North 10.4 mph 17.3 mph 0.02 in Snow Light Snow
11:53 PM 32.0 °F 23.6 °F 28.9 °F 88% 29.80 in 10.0 mi North 10.4 mph 18.4 mph 0.02 in   Overcast